User: anonymous   Login
Location: Caltech
(34.1382°N, 118.1253°W)
Time: 20:25:22
(UTC-07:00)
Language:

Cosmos 2360 Rocket - Orbit

View from above orbital plane
View from above orbital plane
View from above satellite
View from above satellite

Ground track
Ground track

The orbit data is extracted from the following two-line orbital elements,

1 25407U 98045B   17173.16745095 -.00000235 +00000-0 -95484-4 0  9996
2 25407 071.0102 030.9683 0008841 212.6851 147.3726 14.15760288976617
Epoch (UTC): 22 June 2017 04:01:07
Eccentricity: 0.0008841
inclination: 71.0102°
perigee height: 833 km
apogee height: 846 km
right ascension of ascending node: 30.9683°
argument of perigee: 212.6851°
revolutions per day: 14.15760288
mean anomaly at epoch: 147.3726°
orbit number at epoch: 97661

The dashed part of the orbit path shows where the satellite is in the earth's shadow,  

DLR